Location: ?ejeti?ky
(50.4060°N, 14.9016°E)
Time: 21:44:06
(UTC+00:00)

STARLINK-1364 - Pass Details

Date: 10 October 2020
Orbit: 548 x 551 km, 53.0° (Epoch: 23 October)

Event Time Altitude Azimuth Distance (km) Brightness Sun altitude
Exits shadow 02:40:45 35° 139° (SE) 908 4.8 -25.0°
Drops below altitude 10° 02:43:15 10° 127° (SE) 1,822 6.6 -24.7°
Sets 02:45:30 0° 124° (SE) 2,714 7.6 -24.3°
